Battle Creek, MI

7:56 PM EST on November 13, 2019 (GMT -0500)
Kellogg

Weather History for KBTL - July, 2019

Change the Weather History Date:

Sunday, July 21, 2019

  Actual Average Record
Temperature  
Mean Temperature 75 °F 71 °F  
Max Temperature 82 °F 83 °F 97 °F (2011)
Min Temperature 68 °F 59 °F 52 °F (2007)
Degree Days  
Heating Degree Days 0 0  
Month to date heating degree days 0 6  
Since 1 June heating degree days 46 63  
Since 1 July heating degree days 0 6  
Cooling Degree Days 10 6  
Month to date cooling degree days 263 138  
Year to date cooling degree days 404 302  
Since 1 June cooling degree days 388 264  
Growing Degree Days 26 (Base 50)    
Moisture  
Dew Point 70 °F    
Average Humidity 85    
Maximum Humidity 100    
Minimum Humidity 69    
Precipitation  
Precipitation 0.19 in 0.11 in 1.18 in (2004)
Month to date precipitation 2.01 2.25  
Year to date precipitation 20.30 16.96  
Sea Level Pressure  
Sea Level Pressure 29.94 in    
Wind  
Wind Speed 5 mph (NNE)    
Max Wind Speed 12 mph    
Max Gust Speed 15 mph    
Visibility 10 miles    
Events Rain , Thunderstorm    
T = Trace of Precipitation, MM = Missing Value Source: NWS Daily Summary

Daily Weather History Graph

Daily Weather History Graph

Search for Another Location

Airport or City:

Astronomy

Jul. 21, 2019 Rise Set
Actual Time 6:22 AM EDT 9:11 PM EDT
Civil Twilight 5:49 AM EDT 9:44 PM EDT
Nautical Twilight 5:08 AM EDT 10:25 PM EDT
Astronomical Twilight 4:20 AM EDT 11:13 PM EDT
Moon No Moon Rise 10:46 AM EDT (7/21)
Length of Visible Light 15h 54m
Length of Day
14h 48m
Waning Gibbous, 80% of the Moon is Illuminated
Jul 21
Waning Gibbous
Jul 24
Last Quarter
Jul 31
New
Aug 7
First Quarter
Aug 15
Full

Hourly Weather History & Observations

Time (EDT) Temp. Heat Index Dew Point Humidity Pressure Visibility Wind Dir Wind Speed Gust Speed Precip Events Conditions
12:53 AM 72.0 °F - 70.0 °F 93% 29.89 in 10.0 mi North 3.5 mph - N/A   Clear
1:53 AM 72.0 °F - 71.1 °F 97% 29.91 in 10.0 mi NNE 8.1 mph - N/A   Mostly Cloudy
2:14 AM 72.0 °F - 71.1 °F 97% 29.94 in 10.0 mi NNE 6.9 mph - 0.00 in Rain , Thunderstorm Light Rain
2:29 AM 72.0 °F - 71.1 °F 97% 29.93 in 10.0 mi NE 5.8 mph - 0.00 in   Mostly Cloudy
2:40 AM 72.0 °F - 71.1 °F 97% 29.93 in 10.0 mi ENE 4.6 mph - 0.00 in   Mostly Cloudy
2:53 AM 72.0 °F - 71.1 °F 97% 29.90 in 10.0 mi NE 6.9 mph - 0.00 in   Overcast
3:45 AM 72.0 °F - 71.1 °F 97% 29.94 in 10.0 mi NNE 5.8 mph - N/A   Overcast
3:53 AM 72.0 °F - 71.1 °F 97% 29.91 in 10.0 mi North 4.6 mph - N/A Thunderstorm Overcast
4:36 AM 72.0 °F - 70.0 °F 93% 29.95 in 10.0 mi NNE 5.8 mph - N/A   Overcast
4:46 AM 72.0 °F - 70.0 °F 93% 29.93 in 10.0 mi NE 5.8 mph - N/A   Overcast
4:53 AM 72.0 °F - 70.0 °F 93% 29.91 in 10.0 mi East 4.6 mph - N/A   Overcast
5:53 AM 72.0 °F - 70.0 °F 93% 29.89 in 10.0 mi East 4.6 mph - N/A   Clear
6:44 AM 72.0 °F - 70.0 °F 93% 29.97 in 10.0 mi North 5.8 mph - 0.00 in   Mostly Cloudy
6:53 AM 72.0 °F - 70.0 °F 93% 29.96 in 10.0 mi North 4.6 mph - 0.00 in   Mostly Cloudy
7:00 AM 71.1 °F - 70.0 °F 96% 29.96 in 10.0 mi North 3.5 mph - 0.00 in Rain Light Rain
7:11 AM 71.1 °F - 70.0 °F 96% 29.96 in 10.0 mi Calm Calm - 0.01 in Rain Light Rain
7:53 AM 71.1 °F - 71.1 °F 100% 29.94 in 10.0 mi Calm Calm - 0.01 in   Scattered Clouds
8:53 AM 71.1 °F - 70.0 °F 96% 29.96 in 7.0 mi Calm Calm - 0.03 in Rain Light Rain
9:01 AM 71.1 °F - 70.0 °F 96% 29.97 in 4.0 mi Calm Calm - 0.01 in Rain Light Rain
9:53 AM 73.0 °F - 71.1 °F 93% 29.93 in 10.0 mi SE 5.8 mph - 0.04 in   Partly Cloudy
10:34 AM 73.0 °F - 72.0 °F 96% 29.94 in 10.0 mi SSE 6.9 mph - N/A   Mostly Cloudy
10:53 AM 73.9 °F - 71.1 °F 91% 29.94 in 10.0 mi Calm Calm - N/A   Mostly Cloudy
11:53 AM 75.9 °F - 71.1 °F 85% 29.96 in 10.0 mi Calm Calm - N/A   Mostly Cloudy
12:53 PM 79.0 °F - 71.1 °F 77% 29.96 in 10.0 mi North 4.6 mph - N/A   Mostly Cloudy
1:53 PM 82.0 °F 86.7 °F 72.0 °F 71% 29.94 in 10.0 mi Variable 3.5 mph - N/A   Partly Cloudy
2:53 PM 81.0 °F 84.4 °F 70.0 °F 69% 29.93 in 10.0 mi West 5.8 mph - N/A   Overcast
3:53 PM 80.1 °F 83.2 °F 70.0 °F 71% 29.91 in 10.0 mi NNE 10.4 mph - N/A   Overcast
4:53 PM 77.0 °F - 71.1 °F 82% 29.93 in 10.0 mi North 10.4 mph - N/A   Overcast
5:53 PM 75.9 °F - 71.1 °F 85% 29.92 in 10.0 mi North 8.1 mph - N/A   Mostly Cloudy
6:53 PM 73.0 °F - 71.1 °F 93% 29.92 in 5.0 mi North 5.8 mph - 0.08 in Rain Light Rain
7:53 PM 73.0 °F - 71.1 °F 93% 29.94 in 9.0 mi SSW 4.6 mph - 0.02 in Rain Light Rain
8:53 PM 73.9 °F - 70.0 °F 87% 29.95 in 10.0 mi WSW 4.6 mph - 0.01 in   Overcast
9:53 PM 73.0 °F - 71.1 °F 93% 29.95 in 10.0 mi Calm Calm - N/A   Overcast
10:53 PM 73.0 °F - 66.9 °F 81% 29.94 in 10.0 mi East 9.2 mph - 0.00 in   Overcast
11:43 PM 71.1 °F - 69.1 °F 93% 29.96 in 10.0 mi Variable 6.9 mph - N/A   Overcast
11:53 PM 71.1 °F - 68.0 °F 90% 29.94 in 10.0 mi East 6.9 mph - N/A   Overcast